Weather History for Block Island, RI

Change the Weather History Date:

Friday, August 8, 2014

  Actual Average Record
Temperature  
Mean Temperature 70 °F -  
Max Temperature 77 °F 77 °F 88 °F (1962)
Min Temperature 62 °F 65 °F 53 °F (1992)
Cooling Degree Days 4    
Growing Degree Days 20 (Base 50)    
Moisture  
Dew Point 58 °F    
Average Humidity 68    
Maximum Humidity 83    
Minimum Humidity 50    
Precipitation  
Precipitation 0.00 in - - ()
Sea Level Pressure  
Sea Level Pressure 30.01 in    
Wind  
Wind Speed 8 mph (WNW)    
Max Wind Speed 15 mph    
Max Gust Speed 21 mph    
Visibility 10 miles    
Events      
Averages and records for this station are not official NWS values.
T = Trace of Precipitation, MM = Missing Value Source: NWS Daily Summary

Daily Weather History Graph

Daily Weather History Graph

Search for Another Location

Airport:

Trip Planner

Search our weather history database for the weather conditions in past years. The results will help you decide how hot, cold, wet, or windy it might be!

Date:

Astronomy

Aug. 08, 2014 Rise Set
Actual Time 5:48 AM EDT 7:54 PM EDT
Civil Twilight 5:18 AM EDT 8:24 PM EDT
Nautical Twilight 4:41 AM EDT 9:01 PM EDT
Astronomical Twilight 4:00 AM EDT 9:42 PM EDT
Moon 6:03 PM EDT (8/8) 3:17 AM EDT (8/8)
Length of Visible Light 15h 06m
Length of Day
14h 05m
Waxing Gibbous, 93% of the Moon is Illuminated
Aug 8
Waxing Gibbous
Aug 10
Full
Aug 17
Last Quarter
Aug 25
New
Sep 2
First Quarter

Hourly Weather History & Observations

Time (EDT) Temp. Dew Point Humidity Pressure Visibility Wind Dir Wind Speed Gust Speed Precip Events Conditions
12:15 AM 64.4 °F 55.4 °F 73% 29.97 in 10.0 mi NW 5.8 mph - N/A   Clear
12:35 AM 64.4 °F 55.4 °F 73% 29.97 in 10.0 mi NW 6.9 mph - N/A   Clear
12:55 AM 62.6 °F 55.4 °F 77% 29.97 in 10.0 mi NW 5.8 mph - N/A   Clear
1:15 AM 62.6 °F 55.4 °F 77% 29.97 in 10.0 mi NW 4.6 mph - N/A   Clear
1:35 AM 62.6 °F 55.4 °F 77% 29.97 in 10.0 mi NW 5.8 mph - N/A   Clear
1:55 AM 62.6 °F 55.4 °F 77% 29.97 in 10.0 mi NW 5.8 mph - N/A   Clear
2:15 AM 62.6 °F 55.4 °F 77% 29.97 in 10.0 mi NW 5.8 mph - N/A   Clear
2:35 AM 62.6 °F 55.4 °F 77% 29.97 in 10.0 mi WNW 5.8 mph - N/A   Clear
2:55 AM 62.6 °F 55.4 °F 77% 29.97 in 10.0 mi NW 6.9 mph - N/A   Clear
3:15 AM 62.6 °F 55.4 °F 77% 29.97 in 10.0 mi NNW 5.8 mph - N/A   Clear
3:35 AM 62.6 °F 55.4 °F 77% 29.97 in 10.0 mi NW 5.8 mph - N/A   Clear
3:55 AM 62.6 °F 55.4 °F 77% 29.97 in 10.0 mi NW 6.9 mph - N/A   Clear
4:15 AM 62.6 °F 55.4 °F 77% 29.98 in 10.0 mi NW 5.8 mph - N/A   Clear
4:35 AM 62.6 °F 53.6 °F 72% 29.98 in 10.0 mi NW 8.1 mph - N/A   Clear
4:55 AM 62.6 °F 53.6 °F 72% 29.98 in 10.0 mi NW 5.8 mph - N/A   Clear
5:15 AM 62.6 °F 53.6 °F 72% 29.99 in 10.0 mi NW 8.1 mph - N/A   Clear
5:35 AM 62.6 °F 53.6 °F 72% 29.99 in 10.0 mi NNW 9.2 mph - N/A   Clear
5:55 AM 62.6 °F 53.6 °F 72% 30.00 in 10.0 mi NW 10.4 mph 16.1 mph N/A   Clear
6:15 AM 62.6 °F 53.6 °F 72% 30.00 in 10.0 mi NW 8.1 mph - N/A   Clear
6:35 AM 64.4 °F 53.6 °F 68% 30.01 in 10.0 mi NW 6.9 mph 16.1 mph N/A   Clear
6:55 AM 64.4 °F 53.6 °F 68% 30.01 in 10.0 mi NNW 10.4 mph 16.1 mph N/A   Clear
7:15 AM 64.4 °F 53.6 °F 68% 30.01 in 10.0 mi NNW 9.2 mph 16.1 mph N/A   Clear
7:35 AM 64.4 °F 55.4 °F 73% 30.02 in 10.0 mi NNW 11.5 mph - N/A   Clear
7:55 AM 64.4 °F 53.6 °F 68% 30.02 in 10.0 mi NNW 11.5 mph 18.4 mph N/A   Clear
8:15 AM 64.4 °F 55.4 °F 73% 30.03 in 10.0 mi NNW 11.5 mph 17.3 mph N/A   Clear
8:35 AM 66.2 °F 55.4 °F 68% 30.03 in 10.0 mi NNW 9.2 mph 16.1 mph N/A   Clear
8:55 AM 66.2 °F 55.4 °F 68% 30.04 in 10.0 mi NNW 6.9 mph 16.1 mph N/A   Clear
9:15 AM 66.2 °F 55.4 °F 68% 30.04 in 10.0 mi NNW 11.5 mph - N/A   Clear
9:35 AM 68.0 °F 55.4 °F 64% 30.04 in 10.0 mi NNW 8.1 mph - N/A   Clear
9:55 AM 69.8 °F 57.2 °F 64% 30.04 in 10.0 mi NNW 9.2 mph - N/A   Clear
10:15 AM 69.8 °F 57.2 °F 64% 30.04 in 10.0 mi NNW 5.8 mph - N/A   Clear
10:35 AM 69.8 °F 57.2 °F 64% 30.04 in 10.0 mi WNW 6.9 mph - N/A   Clear
10:55 AM 69.8 °F 57.2 °F 64% 30.05 in 10.0 mi WNW 6.9 mph - N/A   Clear
11:15 AM 71.6 °F 57.2 °F 60% 30.04 in 10.0 mi WNW 6.9 mph - N/A   Clear
11:35 AM 73.4 °F 57.2 °F 57% 30.04 in 10.0 mi WSW 9.2 mph - N/A   Clear
11:55 AM 75.2 °F 57.2 °F 53% 30.04 in 10.0 mi West 11.5 mph - N/A   Clear
12:15 PM 73.4 °F 57.2 °F 57% 30.04 in 10.0 mi West 11.5 mph - N/A   Clear
12:35 PM 73.4 °F 57.2 °F 57% 30.03 in 10.0 mi WSW 13.8 mph - N/A   Clear
12:55 PM 75.2 °F 57.2 °F 53% 30.03 in 10.0 mi WSW 11.5 mph - N/A   Clear
1:15 PM 75.2 °F 57.2 °F 53% 30.03 in 10.0 mi WSW 9.2 mph - N/A   Clear
1:35 PM 75.2 °F 59.0 °F 57% 30.03 in 10.0 mi WSW 11.5 mph - N/A   Clear
1:55 PM 75.2 °F 57.2 °F 53% 30.02 in 10.0 mi WSW 11.5 mph - N/A   Clear
2:15 PM 77.0 °F 57.2 °F 50% 30.02 in 10.0 mi WSW 12.7 mph - N/A   Clear
2:35 PM 77.0 °F 57.2 °F 50% 30.02 in 10.0 mi WSW 13.8 mph - N/A   Clear
2:55 PM 77.0 °F 59.0 °F 54% 30.02 in 10.0 mi West 13.8 mph - N/A   Clear
3:15 PM 77.0 °F 59.0 °F 54% 30.01 in 10.0 mi West 15.0 mph 20.7 mph N/A   Clear
3:35 PM 77.0 °F 60.8 °F 57% 30.01 in 10.0 mi West 11.5 mph - N/A   Clear
3:55 PM 77.0 °F 59.0 °F 54% 30.01 in 10.0 mi West 15.0 mph - N/A   Clear
4:35 PM 77.0 °F 59.0 °F 54% 30.01 in 10.0 mi West 9.2 mph - N/A   Clear
4:55 PM 75.2 °F 59.0 °F 57% 30.00 in 10.0 mi West 12.7 mph 18.4 mph N/A   Clear
5:15 PM 75.2 °F 60.8 °F 61% 30.01 in 10.0 mi West 11.5 mph 17.3 mph N/A   Clear
5:35 PM 75.2 °F 60.8 °F 61% 30.01 in 10.0 mi West 12.7 mph 16.1 mph N/A   Clear
5:55 PM 75.2 °F 60.8 °F 61% 30.01 in 10.0 mi West 10.4 mph - N/A   Clear
6:15 PM 75.2 °F 60.8 °F 61% 30.01 in 10.0 mi WSW 11.5 mph - N/A   Clear
6:35 PM 73.4 °F 60.8 °F 65% 30.01 in 10.0 mi WSW 10.4 mph - N/A   Clear
6:55 PM 73.4 °F 60.8 °F 65% 30.02 in 10.0 mi WSW 11.5 mph - N/A   Clear
7:15 PM 73.4 °F 60.8 °F 65% 30.02 in 10.0 mi WSW 11.5 mph - N/A   Clear
7:35 PM 73.4 °F 60.8 °F 65% 30.02 in 10.0 mi WSW 9.2 mph - N/A   Clear
7:55 PM 71.6 °F 62.6 °F 73% 30.03 in 10.0 mi SW 9.2 mph - N/A   Clear
8:15 PM 69.8 °F 62.6 °F 78% 30.03 in 10.0 mi WSW 9.2 mph - N/A   Scattered Clouds
8:35 PM 69.8 °F 62.6 °F 78% 30.03 in 10.0 mi WSW 8.1 mph - N/A   Scattered Clouds
8:55 PM 69.8 °F 60.8 °F 73% 30.04 in 10.0 mi WSW 8.1 mph - N/A   Clear
9:15 PM 69.8 °F 60.8 °F 73% 30.04 in 10.0 mi WSW 8.1 mph - N/A   Clear
9:35 PM 69.8 °F 60.8 °F 73% 30.05 in 10.0 mi WSW 8.1 mph - N/A   Clear
9:55 PM 69.8 °F 60.8 °F 73% 30.04 in 10.0 mi West 6.9 mph - N/A   Clear
10:15 PM 68.0 °F 60.8 °F 78% 30.04 in 10.0 mi West 6.9 mph - N/A   Clear
10:35 PM 68.0 °F 60.8 °F 78% 30.04 in 10.0 mi West 6.9 mph - N/A   Clear
10:55 PM 68.0 °F 60.8 °F 78% 30.05 in 10.0 mi WNW 6.9 mph - N/A   Clear
11:15 PM 68.0 °F 60.8 °F 78% 30.04 in 10.0 mi WNW 5.8 mph - N/A   Clear
11:35 PM 66.2 °F 60.8 °F 83% 30.04 in 10.0 mi WNW 5.8 mph - N/A   Clear
11:55 PM 66.2 °F 60.8 °F 83% 30.04 in 10.0 mi WNW 6.9 mph - N/A   Clear